Time,TemperatureF,DewpointF,PressureIn,WindDirection,WindDirectionDegrees,WindSpeedMPH,WindSpeedGustMPH,Humidity,HourlyPrecipIn,Conditions,Clouds,dailyrainin,SoftwareType,DateUTC
2013-02-14 00:01:00,68.0,58.0,30.09,NE,44,8.0,12.0,71,0.00,,,0.00,,2013-02-14 10:01:00,
2013-02-14 00:11:00,68.0,59.0,30.08,NE,48,8.0,15.0,73,0.00,,,0.00,,2013-02-14 10:11:00,
2013-02-14 00:21:00,68.0,59.0,30.08,NE,48,8.0,15.0,73,0.00,,,0.00,,2013-02-14 10:21:00,
2013-02-14 00:31:00,67.0,58.0,30.07,ENE,70,8.0,17.0,73,0.00,,,0.00,,2013-02-14 10:31:00,
2013-02-14 00:41:00,67.0,58.0,30.07,ENE,70,8.0,17.0,73,0.00,,,0.00,,2013-02-14 10:41:00,
2013-02-14 00:52:00,68.0,59.0,30.06,East,80,5.0,14.0,73,0.00,,,0.00,,2013-02-14 10:52:00,
2013-02-14 01:01:00,68.0,59.0,30.07,NE,42,6.0,10.0,72,0.00,,,0.00,,2013-02-14 11:01:00,
2013-02-14 01:11:00,68.0,59.0,30.06,NE,49,3.0,22.0,73,0.00,,,0.00,,2013-02-14 11:11:00,
2013-02-14 01:21:00,68.0,59.0,30.06,NE,49,3.0,22.0,73,0.00,,,0.00,,2013-02-14 11:21:00,
2013-02-14 01:31:00,68.0,59.0,30.05,ENE,66,4.0,21.0,72,0.00,,,0.00,,2013-02-14 11:31:00,
2013-02-14 01:41:00,68.0,59.0,30.05,ENE,66,4.0,21.0,72,0.00,,,0.00,,2013-02-14 11:41:00,
2013-02-14 01:52:00,68.0,59.0,30.06,ENE,57,8.0,17.0,72,0.00,,,0.00,,2013-02-14 11:52:00,
2013-02-14 02:01:00,68.0,59.0,30.06,East,88,7.0,13.0,72,0.00,,,0.00,,2013-02-14 12:01:00,
2013-02-14 02:11:00,68.0,59.0,30.06,East,88,7.0,13.0,72,0.00,,,0.00,,2013-02-14 12:11:00,
2013-02-14 02:21:00,68.0,58.0,30.05,East,80,5.0,10.0,71,0.00,,,0.00,,2013-02-14 12:21:00,
2013-02-14 02:31:00,68.0,58.0,30.05,ENE,67,4.0,12.0,70,0.00,,,0.00,,2013-02-14 12:31:00,
2013-02-14 02:41:00,68.0,57.0,30.04,ENE,64,7.0,12.0,69,0.00,,,0.00,,2013-02-14 12:41:00,
2013-02-14 02:53:00,68.0,57.0,30.04,ENE,64,7.0,12.0,69,0.00,,,0.00,,2013-02-14 12:53:00,
2013-02-14 03:01:00,68.0,58.0,30.04,NE,45,6.0,15.0,70,0.00,,,0.00,,2013-02-14 13:01:00,
2013-02-14 03:11:00,68.0,58.0,30.03,NE,36,6.0,16.0,71,0.00,,,0.00,,2013-02-14 13:11:00,
2013-02-14 03:21:00,68.0,58.0,30.03,NE,36,6.0,16.0,71,0.00,,,0.00,,2013-02-14 13:21:00,
2013-02-14 03:31:00,67.0,57.0,30.03,NE,56,4.0,12.0,71,0.00,,,0.00,,2013-02-14 13:31:00,
2013-02-14 03:41:00,68.0,59.0,30.03,NE,44,5.0,15.0,72,0.00,,,0.00,,2013-02-14 13:41:00,
2013-02-14 03:51:00,68.0,59.0,30.03,NE,44,5.0,15.0,72,0.00,,,0.00,,2013-02-14 13:51:00,
2013-02-14 04:01:00,68.0,59.0,30.03,ENE,71,5.0,17.0,73,0.00,,,0.00,,2013-02-14 14:01:00,
2013-02-14 04:11:00,67.0,58.0,30.03,ENE,62,12.0,18.0,72,0.00,,,0.00,,2013-02-14 14:11:00,
2013-02-14 04:21:00,67.0,58.0,30.03,ENE,62,12.0,18.0,72,0.00,,,0.00,,2013-02-14 14:21:00,
2013-02-14 04:31:00,67.0,58.0,30.03,ENE,69,7.0,14.0,72,0.00,,,0.00,,2013-02-14 14:31:00,
2013-02-14 04:41:00,67.0,58.0,30.03,ENE,69,7.0,14.0,72,0.00,,,0.00,,2013-02-14 14:41:00,
2013-02-14 04:52:00,68.0,59.0,30.02,ENE,76,8.0,17.0,74,0.00,,,0.00,,2013-02-14 14:52:00,
2013-02-14 05:01:00,67.0,58.0,30.03,NE,54,2.0,17.0,74,0.00,,,0.00,,2013-02-14 15:01:00,
2013-02-14 05:11:00,67.0,58.0,30.03,ENE,78,10.0,11.0,74,0.00,,,0.00,,2013-02-14 15:11:00,
2013-02-14 05:21:00,67.0,58.0,30.03,ENE,78,10.0,11.0,74,0.00,,,0.00,,2013-02-14 15:21:00,
2013-02-14 05:31:00,68.0,59.0,30.03,NE,36,13.0,17.0,74,0.00,,,0.00,,2013-02-14 15:31:00,
2013-02-14 05:41:00,68.0,59.0,30.03,NE,36,13.0,17.0,74,0.00,,,0.00,,2013-02-14 15:41:00,
2013-02-14 05:52:00,67.0,58.0,30.03,ENE,75,1.0,13.0,73,0.00,,,0.00,,2013-02-14 15:52:00,
2013-02-14 06:01:00,68.0,59.0,30.03,East,88,8.0,14.0,73,0.00,,,0.00,,2013-02-14 16:01:00,
2013-02-14 06:11:00,68.0,59.0,30.04,NE,48,6.0,18.0,74,0.00,,,0.00,,2013-02-14 16:11:00,
2013-02-14 06:21:00,68.0,59.0,30.04,NE,48,6.0,18.0,74,0.00,,,0.00,,2013-02-14 16:21:00,
2013-02-14 06:31:00,68.0,59.0,30.04,ENE,61,12.0,15.0,74,0.00,,,0.00,,2013-02-14 16:31:00,
2013-02-14 06:41:00,68.0,59.0,30.04,ENE,61,12.0,15.0,74,0.00,,,0.00,,2013-02-14 16:41:00,
2013-02-14 06:52:00,68.0,60.0,30.05,ENE,61,11.0,13.0,75,0.00,,,0.00,,2013-02-14 16:52:00,
2013-02-14 07:01:00,68.0,60.0,30.05,NE,42,11.0,17.0,75,0.00,,,0.00,,2013-02-14 17:01:00,
2013-02-14 07:11:00,68.0,60.0,30.05,ENE,74,5.0,17.0,75,0.00,,,0.00,,2013-02-14 17:11:00,
2013-02-14 07:21:00,68.0,60.0,30.05,ENE,74,5.0,17.0,75,0.00,,,0.00,,2013-02-14 17:21:00,
2013-02-14 07:31:00,68.0,60.0,30.06,ENE,65,9.0,14.0,76,0.00,,,0.00,,2013-02-14 17:31:00,
2013-02-14 07:41:00,68.0,60.0,30.06,ENE,65,9.0,14.0,76,0.00,,,0.00,,2013-02-14 17:41:00,
2013-02-14 07:52:00,68.0,60.0,30.06,ENE,68,5.0,17.0,76,0.00,,,0.00,,2013-02-14 17:52:00,
2013-02-14 08:01:00,68.0,61.0,30.07,NE,44,6.0,15.0,77,0.00,,,0.00,,2013-02-14 18:01:00,
2013-02-14 08:11:00,68.0,61.0,30.07,NE,44,6.0,15.0,77,0.00,,,0.00,,2013-02-14 18:11:00,
2013-02-14 08:22:00,68.0,61.0,30.07,ENE,59,5.0,13.0,77,0.00,,,0.00,,2013-02-14 18:22:00,
2013-02-14 08:31:00,68.0,60.0,30.08,NE,39,9.0,16.0,76,0.00,,,0.00,,2013-02-14 18:31:00,
2013-02-14 08:41:00,68.0,60.0,30.08,NE,39,9.0,16.0,76,0.00,,,0.00,,2013-02-14 18:41:00,
2013-02-14 08:52:00,68.0,60.0,30.08,NE,41,6.0,13.0,76,0.00,,,0.00,,2013-02-14 18:52:00,
2013-02-14 09:01:00,68.0,60.0,30.08,North,9,9.0,13.0,76,0.00,,,0.00,,2013-02-14 19:01:00,
2013-02-14 09:11:00,69.0,61.0,30.09,NE,55,5.0,15.0,76,0.00,,,0.00,,2013-02-14 19:11:00,
2013-02-14 09:21:00,69.0,61.0,30.09,NE,55,5.0,15.0,76,0.00,,,0.00,,2013-02-14 19:21:00,
2013-02-14 09:31:00,69.0,61.0,30.09,ENE,69,7.0,14.0,75,0.00,,,0.00,,2013-02-14 19:31:00,
2013-02-14 09:41:00,69.0,61.0,30.09,ENE,69,7.0,14.0,75,0.00,,,0.00,,2013-02-14 19:41:00,
2013-02-14 09:52:00,70.0,62.0,30.09,East,93,10.0,18.0,75,0.00,,,0.00,,2013-02-14 19:52:00,
2013-02-14 10:01:00,71.0,62.0,30.10,East,84,6.0,16.0,73,0.00,,,0.00,,2013-02-14 20:01:00,
2013-02-14 10:11:00,71.0,61.0,30.09,ENE,72,7.0,16.0,70,0.00,,,0.00,,2013-02-14 20:11:00,
2013-02-14 10:21:00,71.0,61.0,30.09,ENE,72,7.0,16.0,70,0.00,,,0.00,,2013-02-14 20:21:00,
2013-02-14 10:31:00,72.0,61.0,30.09,ENE,72,10.0,22.0,68,0.00,,,0.00,,2013-02-14 20:31:00,
2013-02-14 10:41:00,72.0,61.0,30.09,ENE,72,10.0,22.0,68,0.00,,,0.00,,2013-02-14 20:41:00,
2013-02-14 10:52:00,73.0,62.0,30.09,NE,42,9.0,16.0,69,0.00,,,0.00,,2013-02-14 20:52:00,
2013-02-14 11:01:00,73.0,62.0,30.09,East,84,9.0,15.0,69,0.00,,,0.00,,2013-02-14 21:01:00,
2013-02-14 11:11:00,73.0,62.0,30.09,East,84,9.0,15.0,69,0.00,,,0.00,,2013-02-14 21:11:00,
2013-02-14 11:21:00,73.0,63.0,30.07,NNE,30,7.0,18.0,70,0.00,,,0.00,,2013-02-14 21:21:00,
2013-02-14 11:31:00,73.0,63.0,30.07,NNE,27,7.0,18.0,72,0.00,,,0.00,,2013-02-14 21:31:00,
2013-02-14 11:41:00,73.0,63.0,30.07,NNE,27,7.0,18.0,72,0.00,,,0.00,,2013-02-14 21:41:00,
2013-02-14 11:51:00,75.0,64.0,30.07,NE,46,8.0,17.0,69,0.00,,,0.00,,2013-02-14 21:51:00,
2013-02-14 12:01:00,75.0,64.0,30.06,NE,46,14.0,14.0,68,0.00,,,0.00,,2013-02-14 22:01:00,
2013-02-14 12:11:00,76.0,64.0,30.06,ENE,69,5.0,19.0,66,0.00,,,0.00,,2013-02-14 22:11:00,
2013-02-14 12:21:00,76.0,64.0,30.06,ENE,69,5.0,19.0,66,0.00,,,0.00,,2013-02-14 22:21:00,
2013-02-14 12:31:00,75.0,63.0,30.05,ENE,65,12.0,16.0,67,0.00,,,0.00,,2013-02-14 22:31:00,
2013-02-14 12:41:00,75.0,63.0,30.05,ENE,65,12.0,16.0,67,0.00,,,0.00,,2013-02-14 22:41:00,
2013-02-14 12:51:00,75.0,63.0,30.05,ENE,59,9.0,12.0,67,0.00,,,0.00,,2013-02-14 22:51:00,
2013-02-14 13:01:00,76.0,63.0,30.04,East,101,10.0,19.0,65,0.00,,,0.00,,2013-02-14 23:01:00,
2013-02-14 13:11:00,76.0,63.0,30.04,East,101,10.0,19.0,65,0.00,,,0.00,,2013-02-14 23:11:00,
2013-02-14 13:21:00,76.0,63.0,30.04,ENE,76,9.0,16.0,64,0.00,,,0.00,,2013-02-14 23:21:00,
2013-02-14 13:31:00,76.0,64.0,30.03,ENE,65,14.0,14.0,66,0.00,,,0.00,,2013-02-14 23:31:00,
2013-02-14 13:41:00,76.0,64.0,30.03,ENE,65,14.0,14.0,66,0.00,,,0.00,,2013-02-14 23:41:00,
2013-02-14 13:52:00,75.0,64.0,30.03,ENE,63,8.0,14.0,68,0.00,,,0.00,,2013-02-14 23:52:00,
2013-02-14 14:01:00,75.0,63.0,30.02,ENE,70,13.0,14.0,67,0.00,,,0.00,,2013-02-15 00:01:00,
2013-02-14 14:11:00,75.0,63.0,30.02,ENE,70,13.0,14.0,67,0.00,,,0.00,,2013-02-15 00:11:00,
2013-02-14 14:21:00,75.0,64.0,30.01,ENE,74,5.0,16.0,68,0.00,,,0.00,,2013-02-15 00:21:00,
2013-02-14 14:31:00,75.0,63.0,30.01,ENE,71,9.0,15.0,67,0.00,,,0.00,,2013-02-15 00:31:00,
2013-02-14 14:41:00,75.0,63.0,30.01,ENE,71,9.0,15.0,67,0.00,,,0.00,,2013-02-15 00:41:00,
2013-02-14 14:52:00,76.0,64.0,30.01,ENE,61,12.0,15.0,67,0.00,,,0.00,,2013-02-15 00:52:00,
2013-02-14 15:01:00,75.0,63.0,30.01,ENE,58,11.0,16.0,66,0.00,,,0.00,,2013-02-15 01:01:00,
2013-02-14 15:11:00,75.0,63.0,30.01,ENE,58,11.0,16.0,66,0.00,,,0.00,,2013-02-15 01:11:00,
2013-02-14 15:21:00,75.0,64.0,30.00,ENE,67,3.0,13.0,68,0.00,,,0.00,,2013-02-15 01:21:00,
2013-02-14 15:31:00,74.0,63.0,30.00,ENE,74,5.0,11.0,69,0.00,,,0.00,,2013-02-15 01:31:00,
2013-02-14 15:41:00,74.0,63.0,30.00,ENE,74,5.0,11.0,69,0.00,,,0.00,,2013-02-15 01:41:00,
2013-02-14 15:51:00,74.0,63.0,30.01,NE,46,7.0,12.0,69,0.00,,,0.00,,2013-02-15 01:51:00,
2013-02-14 16:01:00,76.0,64.0,30.00,East,88,6.0,12.0,66,0.00,,,0.00,,2013-02-15 02:01:00,
2013-02-14 16:11:00,75.0,64.0,30.00,East,80,7.0,13.0,68,0.00,,,0.00,,2013-02-15 02:11:00,
2013-02-14 16:21:00,75.0,64.0,30.00,East,80,7.0,13.0,68,0.00,,,0.00,,2013-02-15 02:21:00,
2013-02-14 16:31:00,75.0,63.0,30.00,ENE,74,7.0,14.0,67,0.00,,,0.00,,2013-02-15 02:31:00,
2013-02-14 16:41:00,75.0,63.0,30.00,ENE,74,7.0,14.0,67,0.00,,,0.00,,2013-02-15 02:41:00,
2013-02-14 16:52:00,74.0,63.0,30.01,NE,34,5.0,15.0,68,0.00,,,0.00,,2013-02-15 02:52:00,
2013-02-14 17:01:00,73.0,63.0,30.00,ENE,75,4.0,12.0,71,0.00,,,0.00,,2013-02-15 03:01:00,
2013-02-14 17:11:00,72.0,62.0,30.01,ENE,63,2.0,14.0,71,0.00,,,0.00,,2013-02-15 03:11:00,
2013-02-14 17:21:00,72.0,62.0,30.01,ENE,63,2.0,14.0,71,0.00,,,0.00,,2013-02-15 03:21:00,
2013-02-14 17:31:00,73.0,63.0,30.01,ENE,61,8.0,16.0,70,0.00,,,0.00,,2013-02-15 03:31:00,
2013-02-14 17:41:00,73.0,63.0,30.01,ENE,61,8.0,16.0,70,0.00,,,0.00,,2013-02-15 03:41:00,
2013-02-14 17:52:00,73.0,63.0,30.01,NE,43,5.0,17.0,70,0.00,,,0.00,,2013-02-15 03:52:00,
2013-02-14 18:01:00,72.0,62.0,30.01,NE,41,5.0,14.0,71,0.00,,,0.00,,2013-02-15 04:01:00,
2013-02-14 18:11:00,72.0,62.0,30.01,NE,41,5.0,14.0,71,0.00,,,0.00,,2013-02-15 04:11:00,
2013-02-14 18:21:00,71.0,62.0,30.01,NE,49,7.0,16.0,72,0.00,,,0.00,,2013-02-15 04:21:00,
2013-02-14 18:31:00,71.0,62.0,30.02,NE,55,5.0,15.0,73,0.00,,,0.00,,2013-02-15 04:31:00,
2013-02-14 18:41:00,71.0,62.0,30.02,NE,55,5.0,15.0,73,0.00,,,0.00,,2013-02-15 04:41:00,
2013-02-14 18:52:00,71.0,63.0,30.02,North,5,8.0,17.0,75,0.00,,,0.00,,2013-02-15 04:52:00,
2013-02-14 19:01:00,70.0,62.0,30.02,NNE,18,9.0,12.0,76,0.00,,,0.00,,2013-02-15 05:01:00,
2013-02-14 19:11:00,70.0,62.0,30.02,NNE,18,9.0,12.0,76,0.00,,,0.00,,2013-02-15 05:11:00,
2013-02-14 19:22:00,69.0,61.0,30.02,ENE,68,10.0,16.0,76,0.00,,,0.00,,2013-02-15 05:22:00,
2013-02-14 19:32:00,69.0,61.0,30.03,NE,51,10.0,15.0,76,0.00,,,0.00,,2013-02-15 05:32:00,
2013-02-14 19:41:00,69.0,61.0,30.03,NE,51,10.0,15.0,76,0.00,,,0.00,,2013-02-15 05:41:00,
2013-02-14 19:52:00,69.0,61.0,30.03,ENE,71,1.0,21.0,77,0.00,,,0.00,,2013-02-15 05:52:00,
2013-02-14 20:01:00,69.0,61.0,30.03,ENE,77,7.0,15.0,77,0.00,,,0.00,,2013-02-15 06:01:00,
2013-02-14 20:11:00,69.0,61.0,30.03,NE,55,4.0,13.0,77,0.00,,,0.00,,2013-02-15 06:11:00,
2013-02-14 20:21:00,69.0,61.0,30.03,NE,55,4.0,13.0,77,0.00,,,0.00,,2013-02-15 06:21:00,
2013-02-14 20:31:00,69.0,62.0,30.03,NE,50,6.0,14.0,78,0.00,,,0.00,,2013-02-15 06:31:00,
2013-02-14 20:41:00,69.0,62.0,30.03,NE,50,6.0,14.0,78,0.00,,,0.00,,2013-02-15 06:41:00,
2013-02-14 20:52:00,69.0,62.0,30.04,ENE,71,4.0,14.0,78,0.00,,,0.00,,2013-02-15 06:52:00,
2013-02-14 21:01:00,69.0,62.0,30.04,East,82,10.0,23.0,78,0.00,,,0.00,,2013-02-15 07:01:00,
2013-02-14 21:11:00,69.0,62.0,30.04,East,82,10.0,23.0,78,0.00,,,0.00,,2013-02-15 07:11:00,
2013-02-14 21:21:00,69.0,62.0,30.04,ENE,72,8.0,19.0,78,0.00,,,0.00,,2013-02-15 07:21:00,
2013-02-14 21:31:00,69.0,62.0,30.04,ENE,65,5.0,14.0,78,0.00,,,0.00,,2013-02-15 07:31:00,
2013-02-14 21:41:00,69.0,62.0,30.04,ENE,65,5.0,14.0,78,0.00,,,0.00,,2013-02-15 07:41:00,
2013-02-14 21:52:00,69.0,62.0,30.05,NE,49,11.0,20.0,78,0.00,,,0.00,,2013-02-15 07:52:00,
2013-02-14 22:01:00,69.0,62.0,30.05,East,82,13.0,21.0,78,0.00,,,0.00,,2013-02-15 08:01:00,
2013-02-14 22:11:00,69.0,62.0,30.05,East,82,13.0,21.0,78,0.00,,,0.00,,2013-02-15 08:11:00,
2013-02-14 22:21:00,69.0,62.0,30.05,NE,46,5.0,19.0,78,0.00,,,0.00,,2013-02-15 08:21:00,
2013-02-14 22:31:00,69.0,62.0,30.05,East,86,6.0,21.0,79,0.00,,,0.00,,2013-02-15 08:31:00,
2013-02-14 22:41:00,69.0,62.0,30.05,East,86,6.0,21.0,79,0.00,,,0.00,,2013-02-15 08:41:00,
2013-02-14 22:52:00,69.0,62.0,30.05,NE,56,8.0,17.0,78,0.00,,,0.00,,2013-02-15 08:52:00,
2013-02-14 23:01:00,68.0,61.0,30.06,East,92,8.0,15.0,78,0.00,,,0.00,,2013-02-15 09:01:00,
2013-02-14 23:11:00,68.0,61.0,30.06,East,92,8.0,15.0,78,0.00,,,0.00,,2013-02-15 09:11:00,
2013-02-14 23:21:00,69.0,62.0,30.06,NE,46,7.0,17.0,79,0.00,,,0.00,,2013-02-15 09:21:00,
2013-02-14 23:31:00,69.0,62.0,30.05,NE,44,7.0,15.0,79,0.00,,,0.00,,2013-02-15 09:31:00,
2013-02-14 23:41:00,69.0,62.0,30.05,NE,44,7.0,15.0,79,0.00,,,0.00,,2013-02-15 09:41:00,
2013-02-14 23:52:00,69.0,62.0,30.05,East,82,15.0,17.0,79,0.00,,,0.00,,2013-02-15 09:52:00,